#timestamp,LO_Frequency,Hit,StdDev 
1711245615.5,286046996.9,N
1711245635.4,286046997.0,N
1711245655.2,286046996.5,N
1711245675.1,286046996.9,N
1711245676.0,286046996.9,N
1711245695.8,286046997.0,N
1711245715.6,286046999.6,N
1711245735.5,286046999.1,N
1711245755.3,286046998.3,N
1711245775.2,286047000.8,N
1711245795.9,286047001.2,N
1711245815.7,286047000.4,N
1711245835.6,286047001.0,N
1711245855.4,286047000.6,N
1711245875.2,286047001.8,N
1711245895.1,286047004.4,N
1711245896.0,286047004.4,N
1711245915.8,286047004.4,N
1711245935.7,286047004.3,N
1711245955.5,286047001.5,N
1711245975.3,286047001.5,N
1711245995.2,286047002.6,N
1711246015.0,286047002.7,N
1711246015.9,286047002.7,N
1711246035.8,286047002.0,N
1711246055.6,286047002.8,N
1711246075.4,286047000.7,N
1711246095.3,286046998.3,N
1711246115.1,286046998.2,N
1711246135.9,286047000.8,N
1711246155.7,286046998.9,N
1711246175.5,286046996.6,N
1711246195.4,286046996.8,N
1711246215.2,286046999.6,N
1711246235.0,286046999.6,N
1711246236.0,286046999.6,N
1711246255.8,286046999.5,N
1711246275.6,286046999.1,N
1711246295.5,286046996.6,N
1711246315.3,286046996.9,N
1711246335.1,286046998.8,N
1711246355.9,286046999.3,N
1711246375.7,286046996.7,N
1711246395.5,286046999.4,N
1711246415.4,286046998.5,N
1711246435.2,286046999.3,N
1711246455.1,286046997.0,N
1711246456.0,286046997.0,N
1711246475.8,286046998.2,N
1711246495.6,286047000.2,N
1711246515.5,286047000.4,N
1711246535.3,286046998.1,N
1711246555.2,286047000.9,N
1711246575.9,286047001.1,N
1711246595.7,286047000.5,N
1711246615.6,286047000.1,N
1711246635.4,286047000.2,N
1711246655.2,286047000.6,N
1711246675.1,286047000.2,N
1711246676.0,286047000.2,N
1711246695.8,286047001.9,N
1711246715.7,286047002.0,N
1711246735.5,286047002.0,N
1711246755.3,286046999.9,N
1711246775.2,286047000.2,N
1711246795.0,286047000.4,N
1711246795.9,286047000.4,N
1711246815.8,286047002.8,N
1711246835.6,286047002.5,N
1711246855.4,286047002.1,N
1711246875.3,286047002.1,N
1711246895.1,286047001.5,N
1711246915.9,286047000.2,N
1711246935.7,286047001.0,N
1711246955.5,286047001.1,N
1711246975.4,286046998.6,N
1711246995.2,286046998.9,N
1711247015.0,286046998.7,N
1711247015.9,286046998.7,N
1711247035.8,286046997.3,N
1711247055.6,286046997.0,N
1711247075.5,286046998.7,N
1711247095.3,286046998.1,N
1711247115.1,286046998.8,N
1711247135.9,286046998.5,N
1711247155.7,286047000.5,N
1711247175.6,286047000.5,N
1711247195.4,286047000.5,N
1711247215.2,286047000.8,N
1711247235.1,286047000.8,N
1711247236.0,286047000.8,N
1711247255.8,286046998.4,N
1711247275.6,286047001.1,N
1711247295.5,286047000.4,N
1711247315.3,286047001.1,N
1711247335.2,286047001.2,N
1711247355.0,286047001.2,N
1711247355.9,286047001.2,N
1711247375.7,286047000.9,N
1711247395.6,286047001.0,N
1711247415.4,286046999.9,N
1711247435.3,286047002.2,N
1711247455.1,286047000.0,N
1711247456.0,286047000.0,N
1711247475.8,286047000.3,N
1711247495.7,286047000.8,N
1711247515.5,286047000.7,N
1711247535.3,286047001.0,N
1711247555.2,286046998.9,N
1711247575.0,286046999.2,N
1711247575.9,286046999.2,N
1711247595.8,286046999.4,N
1711247615.6,286046998.6,N
1711247635.4,286046999.1,N
1711247655.3,286047001.1,N
1711247675.1,286047000.6,N
1711247695.9,286047000.6,N
1711247715.7,286047001.0,N
1711247735.5,286047000.2,N
1711247755.4,286047000.3,N
1711247775.2,286047001.1,N
1711247795.0,286047001.1,N
1711247795.9,286047001.1,N
1711247815.8,286046998.1,N
1711247835.6,286047000.5,N
1711247855.5,286047000.8,N
1711247875.3,286047000.6,N
1711247895.1,286046998.6,N
1711247915.9,286046999.3,N
1711247935.7,286047001.1,N
1711247955.5,286047000.8,N
1711247975.4,286047000.8,N
1711247995.2,286047001.2,N
1711248015.1,286047000.6,N
1711248016.0,286047000.6,N
1711248035.8,286047000.4,N
1711248055.6,286047001.1,N
1711248075.5,286047000.4,N
1711248095.3,286047001.2,N
1711248115.1,286046998.8,N
1711248135.9,286046999.3,N
1711248155.7,286046998.8,N
1711248175.6,286047001.1,N
1711248195.4,286046998.3,N
1711248215.2,286047001.0,N
1711248235.1,286047000.4,N
1711248236.0,286047000.4,N
1711248255.8,286047000.4,N
1711248275.7,286047001.6,N
1711248295.5,286047000.1,N
1711248315.3,286047000.5,N
1711248335.2,286047000.9,N
1711248355.0,286047001.2,N
1711248355.9,286047001.2,N
1711248375.7,286046998.1,N
1711248395.6,286046999.3,N
1711248415.4,286046998.9,N
1711248435.3,286046998.4,N
1711248455.1,286046998.6,N
1711248456.0,286046998.6,N
1711248475.8,286047000.6,N
1711248495.7,286047001.1,N
1711248515.5,286047000.5,N
1711248535.3,286047001.1,N
1711248555.2,286046998.7,N
1711248575.3,286046998.9,N
1711248595.1,286047000.9,N
1711248615.8,286046998.9,N
1711248635.7,286047001.1,N
1711248655.5,286047000.5,N
1711248675.4,286046998.3,N
1711248695.2,286047001.0,N
1711248715.0,286046998.1,N
1711248715.9,286046998.1,N
1711248735.8,286046998.8,N
1711248755.6,286047001.2,N
1711248775.4,286047000.6,N
1711248795.3,286046998.6,N
1711248815.1,286047000.6,N
1711248835.9,286047000.0,N
1711248855.7,286047000.3,N
1711248875.5,286046999.8,N
1711248895.4,286047000.5,N
1711248915.2,286047000.3,N
1711248935.0,286047002.4,N
1711248936.0,286047002.4,N
1711248955.8,286047002.3,N
1711248975.6,286047002.3,N
1711248995.5,286046999.7,N
1711249015.3,286047000.0,N
1711249035.1,286047000.1,N
1711249055.9,286046999.7,N
1711249075.7,286047000.5,N
1711249095.6,286047001.0,N
1711249115.4,286047001.0,N
1711249135.2,286047000.7,N
1711249155.1,286047000.1,N
1711249156.0,286047000.1,N
1711249175.8,286047001.5,N
1711249195.7,286047001.7,N
